Terminal Aerodrome Forecast
Issued by NWS

Home | Current Version | Previous Version | Text Only | Print | Product List | Glossary On
Versions: 1 2 3 4 5 6 7 8 9 10 11 12 13
000
FTUS46 KSGX 061730
TAFPSP
TAF
KPSP 061730Z 0618/0718 32012KT P6SM SKC
     FM062200 32018G28KT P6SM SKC
     FM070800 33008G16KT P6SM SKC
     FM071200 VRB06KT P6SM SKC=

USA.gov is the U.S. government's official web portal to all federal, state and local government web resources and services.